Flag for U.S.A. Weather past 2 weeks in Brownsville, Texas, U.S.A.

Now
86 °F

Scattered clouds.


Feels Like: 95 °F
Forecast: 76 / 88 °F
Wind: 9 mph from Northeast

Location: Brownsville / South Padre Island International Airport

Current Time: Sep 21, 2014 at 2:14:38 PM

Latest Report: Sep 21, 2014 at 1:53 PM


Visibility: 10 mi

Pressure: 29.94 "Hg

Humidity: 70%

Dew point: 75 °F

Location of BrownsvilleLocation

Historic Weather in Brownsville — Graph

°F

Brownsville temperature yesterday

Maximum temperature yesterday: 87 °F (at 12:53 PM)
Minimum temperature yesterday: 79 °F (at 5:53 AM)
Average temperature yesterday: 81 °F

Past Weeks' High & Low Weather Summary

 TemperatureHumidityPressure
High93 °F (Sep 10, 1:53 PM)100% (Sep 7, 6:03 AM)30.08 "Hg (Sep 7, 6:03 AM)
Low73 °F (Sep 15, 4:53 AM)51% (Sep 8, 2:53 PM)29.76 "Hg (Sep 18, 3:53 PM)
Average81 °F85%29.93 "Hg
* Reported Sep 6 12:53 PM — Sep 21 12:53 PM, Brownsville, Weather by CustomWeather, © 2014

Note: Actual official high and low records may vary slightly from our data, if they occured in-between our weather recording intervals... More about our weather records

Advertising

Brownsville weather history for previous 24 hours

 ConditionsComfort  
Time TempWeatherWind HumidityBarometerVisibility
12:53 PM
Sep 21
81 °FLight rain. Mostly cloudy.10 mph85%29.96 "Hg10 mi
11:53 AM88 °FScattered clouds.7 mph65%29.96 "Hg10 mi
10:53 AM87 °FSunny.5 mph69%29.96 "Hg10 mi
9:53 AM84 °FSunny.6 mph80%29.95 "Hg10 mi
8:53 AM80 °FSunny.5 mph87%29.95 "Hg10 mi
7:53 AM77 °FPassing clouds.5 mph90%29.93 "Hg10 mi
6:53 AM76 °FClear.3 mph97%29.91 "Hg9 mi
5:53 AM76 °FPassing clouds.No wind94%29.90 "Hg7 mi
4:53 AM77 °FClear.5 mph94%29.88 "Hg8 mi
3:53 AM76 °FClear.3 mph97%29.88 "Hg7 mi
2:53 AM77 °FClear.3 mph96%29.89 "Hg8 mi
1:53 AM77 °FClear.No wind94%29.90 "Hg9 mi
12:53 AM77 °FClear.No wind94%29.90 "Hg9 mi
11:53 PM
Sep 20
79 °FClear.No wind94%29.90 "Hg10 mi
10:53 PM80 °FPassing clouds.No wind90%29.91 "Hg10 mi
9:53 PM80 °FPassing clouds.No wind90%29.90 "Hg10 mi
8:53 PM80 °FClear.5 mph90%29.88 "Hg10 mi
7:53 PM80 °FSunny.3 mph90%29.85 "Hg10 mi
6:53 PM81 °FPassing clouds.No wind88%29.84 "Hg10 mi
5:53 PM84 °FPartly sunny.8 mph80%29.85 "Hg10 mi
4:53 PM83 °FSunny.5 mph82%29.84 "Hg10 mi
3:53 PM80 °FSunny.5 mph90%29.83 "Hg10 mi
2:53 PM80 °FMore clouds than sun.3 mph90%29.87 "Hg10 mi
2:02 PM81 °FThunderstorms. Mostly cloudy.6 mph89%29.88 "Hg10 mi
Weather by CustomWeather, © 2014

See weather overviewHow to use our weather pages